• In Czech Republic
  • List of Countries
  • For 7 days
  • Water Temperature
  • Satellite Maps
  • Weather Map
  • Weather Widgets
  • user-avatar
    Login

    Hourly Weather Kozhla

    Today, 20 April, Friday

    Time Temperature Precipitation Wind Pressure Humidity
    00:00 +4°C° 0.6 mm 3 mps 746 mmHg 97%
    01:00 +4°C° 0.7 mm 3 mps 746 mmHg 96%
    02:00 +4°C° 0.7 mm 3 mps 746 mmHg 96%
    03:00 +4°C° 0 mm 3 mps 747 mmHg 96%
    04:00 +3°C° 0.4 mm 4 mps 747 mmHg 95%
    05:00 +3°C° 0.4 mm 4 mps 747 mmHg 93%
    06:00 +2°C° 0.4 mm 5 mps 748 mmHg 92%
    07:00 +3°C° 0.1 mm 5 mps 748 mmHg 86%
    08:00 +3°C° 0.1 mm 6 mps 749 mmHg 79%
    09:00 +4°C° 0.1 mm 6 mps 749 mmHg 73%
    10:00 +4°C° 0 mm 6 mps 750 mmHg 69%
    11:00 +5°C° 0 mm 6 mps 750 mmHg 65%
    12:00 +5°C° 0 mm 6 mps 750 mmHg 60%
    13:00 +5°C° 0 mm 6 mps 751 mmHg 60%
    14:00 +4°C° 0 mm 6 mps 751 mmHg 59%
    15:00 +4°C° 0 mm 6 mps 751 mmHg 59%
    16:00 +3°C° 0 mm 6 mps 752 mmHg 59%
    17:00 +2°C° 0 mm 5 mps 752 mmHg 60%
    18:00 +1°C° 0 mm 5 mps 752 mmHg 60%
    19:00 0°C° 0 mm 4 mps 753 mmHg 63%
    20:00 0°C° 0 mm 4 mps 753 mmHg 65%
    21:00 0°C° 0 mm 3 mps 753 mmHg 68%
    22:00 -1°C° 0 mm 3 mps 753 mmHg 69%
    23:00 -1°C° 0 mm 2 mps 753 mmHg 70%

    Tomorrow, 21 April, Saturday

    Time Temperature Precipitation Wind Pressure Humidity
    00:00 -1°C° 0 mm 2 mps 753 mmHg 70%
    01:00 -2°C° 0 mm 2 mps 753 mmHg 72%
    02:00 0°C° 0 mm 1 mps 753 mmHg 73%
    03:00 -1°C° 0 mm 1 mps 753 mmHg 75%
    04:00 -1°C° 0 mm 1 mps 753 mmHg 72%
    05:00 0°C° 0 mm 1 mps 753 mmHg 70%
    06:00 -1°C° 0 mm 0 mps 753 mmHg 68%
    07:00 +1°C° 0 mm 1 mps 752 mmHg 61%
    08:00 +2°C° 0 mm 1 mps 752 mmHg 54%
    09:00 +3°C° 0 mm 2 mps 752 mmHg 47%
    10:00 +3°C° 0 mm 3 mps 751 mmHg 46%
    11:00 +4°C° 0 mm 4 mps 750 mmHg 44%
    12:00 +5°C° 0 mm 4 mps 749 mmHg 43%
    13:00 +5°C° 0.1 mm 5 mps 748 mmHg 46%
    14:00 +3°C° 0.1 mm 5 mps 748 mmHg 49%
    15:00 +3°C° 0.1 mm 5 mps 747 mmHg 52%
    16:00 +3°C° 0.3 mm 5 mps 746 mmHg 56%
    17:00 +2°C° 0.3 mm 6 mps 745 mmHg 61%
    18:00 +2°C° 0.3 mm 6 mps 744 mmHg 65%
    19:00 +2°C° 0.5 mm 6 mps 743 mmHg 68%
    20:00 +3°C° 0.5 mm 7 mps 741 mmHg 71%
    21:00 +2°C° 0.5 mm 8 mps 740 mmHg 73%
    22:00 +2°C° 0.4 mm 8 mps 739 mmHg 76%
    23:00 +4°C° 0.4 mm 8 mps 737 mmHg 79%

    Day after tomorrow, 22 April, Sunday

    Time Temperature Precipitation Wind Pressure Humidity
    00:00 +4°C° 0.4 mm 8 mps 736 mmHg 82%
    01:00 +5°C° 1.1 mm 8 mps 735 mmHg 83%
    02:00 +5°C° 1.1 mm 8 mps 734 mmHg 85%
    03:00 +5°C° 1.1 mm 9 mps 733 mmHg 87%
    04:00 +5°C° 0.9 mm 8 mps 733 mmHg 88%
    05:00 +5°C° 0.9 mm 7 mps 732 mmHg 90%
    06:00 +5°C° 0.9 mm 6 mps 732 mmHg 91%
    07:00 +5°C° 0.2 mm 6 mps 732 mmHg 85%
    08:00 +7°C° 0.2 mm 6 mps 732 mmHg 79%
    09:00 +7°C° 0.2 mm 6 mps 732 mmHg 73%
    10:00 +8°C° 0.1 mm 6 mps 732 mmHg 71%
    11:00 +8°C° 0.1 mm 6 mps 732 mmHg 69%
    12:00 +8°C° 0.1 mm 6 mps 733 mmHg 67%
    13:00 +8°C° 0.2 mm 7 mps 733 mmHg 67%
    14:00 +8°C° 0.2 mm 7 mps 733 mmHg 66%
    15:00 +8°C° 0.2 mm 7 mps 733 mmHg 66%
    16:00 +7°C° 0.2 mm 6 mps 734 mmHg 69%
    17:00 +5°C° 0.2 mm 6 mps 734 mmHg 73%
    18:00 +4°C° 0.2 mm 6 mps 734 mmHg 76%
    19:00 +3°C° 0.1 mm 6 mps 735 mmHg 78%
    20:00 +2°C° 0.1 mm 6 mps 735 mmHg 81%
    21:00 +1°C° 0.1 mm 5 mps 735 mmHg 83%
    22:00 +1°C° 0.1 mm 5 mps 736 mmHg 84%
    23:00 +1°C° 0.1 mm 5 mps 736 mmHg 85%

    23 April, Monday

    Time Temperature Precipitation Wind Pressure Humidity
    00:00 0°C° 0.1 mm 5 mps 736 mmHg 87%
    01:00 0°C° 0.2 mm 5 mps 736 mmHg 88%
    02:00 0°C° 0.2 mm 5 mps 737 mmHg 89%
    03:00 0°C° 0.2 mm 5 mps 737 mmHg 89%
    04:00 0°C° 0.1 mm 5 mps 738 mmHg 89%
    05:00 0°C° 0.1 mm 5 mps 738 mmHg 89%
    06:00 -1°C° 0.1 mm 5 mps 738 mmHg 89%
    07:00 -1°C° 0.2 mm 6 mps 739 mmHg 87%
    08:00 -1°C° 0.2 mm 6 mps 739 mmHg 86%
    09:00 -1°C° 0.2 mm 6 mps 740 mmHg 85%
    10:00 -1°C° 0.3 mm 6 mps 741 mmHg 83%
    11:00 -1°C° 0.3 mm 6 mps 741 mmHg 82%
    12:00 +1°C° 0.3 mm 6 mps 742 mmHg 80%
    13:00 +1°C° 0.1 mm 6 mps 743 mmHg 79%
    14:00 +1°C° 0.1 mm 6 mps 743 mmHg 78%
    15:00 +1°C° 0.1 mm 6 mps 744 mmHg 78%
    16:00 +1°C° 0.1 mm 5 mps 744 mmHg 79%
    17:00 0°C° 0.1 mm 5 mps 745 mmHg 80%
    18:00 0°C° 0.1 mm 5 mps 745 mmHg 82%
    19:00 0°C° 0.1 mm 4 mps 746 mmHg 84%
    20:00 -1°C° 0.1 mm 4 mps 746 mmHg 85%
    21:00 -1°C° 0.1 mm 4 mps 747 mmHg 87%
    22:00 -1°C° 0 mm 4 mps 747 mmHg 88%
    23:00 -1°C° 0 mm 4 mps 747 mmHg 88%

    24 April, Tuesday

    Time Temperature Precipitation Wind Pressure Humidity
    00:00 -2°C° 0 mm 4 mps 747 mmHg 88%
    01:00 -2°C° 0 mm 4 mps 748 mmHg 88%
    02:00 -2°C° 0 mm 4 mps 748 mmHg 88%
    03:00 -3°C° 0 mm 4 mps 748 mmHg 88%
    04:00 -4°C° 0 mm 5 mps 749 mmHg 87%
    05:00 -4°C° 0 mm 5 mps 749 mmHg 86%
    06:00 -4°C° 0 mm 5 mps 750 mmHg 85%
    07:00 -2°C° 0 mm 5 mps 750 mmHg 79%
    08:00 -2°C° 0 mm 5 mps 750 mmHg 73%
    09:00 -2°C° 0 mm 6 mps 751 mmHg 66%
    10:00 -1°C° 0 mm 6 mps 751 mmHg 63%
    11:00 +1°C° 0 mm 6 mps 751 mmHg 59%
    12:00 +2°C° 0 mm 6 mps 751 mmHg 56%
    13:00 +2°C° 0 mm 5 mps 752 mmHg 56%
    14:00 +2°C° 0 mm 5 mps 752 mmHg 57%
    15:00 +2°C° 0 mm 5 mps 752 mmHg 57%
    16:00 +2°C° 0 mm 5 mps 752 mmHg 60%
    17:00 +1°C° 0 mm 4 mps 753 mmHg 62%
    18:00 +1°C° 0 mm 4 mps 753 mmHg 65%
    19:00 +1°C° 0 mm 3 mps 753 mmHg 69%
    20:00 0°C° 0 mm 3 mps 754 mmHg 74%
    21:00 -1°C° 0 mm 2 mps 754 mmHg 78%
    22:00 -1°C° 0 mm 2 mps 754 mmHg 79%
    23:00 -1°C° 0 mm 2 mps 754 mmHg 80%

    25 April, Wednesday

    Time Temperature Precipitation Wind Pressure Humidity
    00:00 -2°C° 0 mm 2 mps 754 mmHg 81%
    01:00 -2°C° 0 mm 2 mps 754 mmHg 81%
    02:00 -2°C° 0 mm 2 mps 755 mmHg 82%
    03:00 -3°C° 0 mm 2 mps 755 mmHg 83%
    04:00 0°C° 0 mm 1 mps 755 mmHg 78%
    05:00 0°C° 0 mm 1 mps 755 mmHg 74%
    06:00 +1°C° 0 mm 1 mps 756 mmHg 70%
    07:00 +2°C° 0 mm 1 mps 756 mmHg 62%
    08:00 +4°C° 0 mm 1 mps 756 mmHg 55%
    09:00 +5°C° 0 mm 1 mps 756 mmHg 47%
    10:00 +6°C° 0 mm 1 mps 756 mmHg 45%
    11:00 +7°C° 0 mm 1 mps 756 mmHg 44%
    12:00 +7°C° 0 mm 2 mps 756 mmHg 42%
    13:00 +7°C° 0 mm 2 mps 756 mmHg 42%
    14:00 +8°C° 0 mm 2 mps 755 mmHg 42%
    15:00 +8°C° 0 mm 2 mps 755 mmHg 41%
    16:00 +8°C° 0 mm 2 mps 755 mmHg 46%
    17:00 +7°C° 0 mm 2 mps 755 mmHg 50%
    18:00 +7°C° 0 mm 2 mps 755 mmHg 54%
    19:00 +4°C° 0 mm 3 mps 755 mmHg 58%
    20:00 +3°C° 0 mm 3 mps 755 mmHg 62%
    21:00 +1°C° 0 mm 4 mps 755 mmHg 66%
    22:00 +1°C° 0 mm 4 mps 755 mmHg 66%
    23:00 +1°C° 0 mm 4 mps 754 mmHg 66%
    Show more